Joliet, IL

12:46 PM CDT on April 26, 2017 (GMT -0500)
Joliet Regional

Weather History for KJOT - February, 2014

Change the Weather History Date:

Tuesday, February 18, 2014

  Actual Average (KARR) Record (KARR)
Temperature  
Mean Temperature 26 °F -  
Max Temperature 45 °F 34 °F 68 °F (2017)
Min Temperature 6 °F 20 °F -8 °F (2006)
Degree Days  
Heating Degree Days 40    
Moisture  
Dew Point 24 °F    
Average Humidity 73    
Maximum Humidity 96    
Minimum Humidity 48    
Precipitation  
Precipitation 0.00 in - - ()
Sea Level Pressure  
Sea Level Pressure 29.81 in    
Wind  
Wind Speed 7 mph (SSW)    
Max Wind Speed 18 mph    
Max Gust Speed 30 mph    
Visibility 9 miles    
Events Fog    
Averages and records for this station are not official NWS values.
T = Trace of Precipitation, MM = Missing Value Source: NWS Daily Summary

Daily Weather History Graph

Daily Weather History Graph

Search for Another Location

Airport or City:

Trip Planner

Search our weather history database for the weather conditions in past years. The results will help you decide how hot, cold, wet, or windy it might be!

Date:

Astronomy

Feb. 18, 2014 Rise Set
Actual Time 6:43 AM CST 5:30 PM CST
Civil Twilight 6:15 AM CST 5:58 PM CST
Nautical Twilight 5:43 AM CST 6:30 PM CST
Astronomical Twilight 5:11 AM CST 7:02 PM CST
Moon 9:26 PM CST (2/18) 8:12 AM CST (2/18)
Length of Visible Light 11h 42m
Length of Day
10h 46m
Waning Gibbous, 87% of the Moon is Illuminated
Feb 18
Waning Gibbous
Feb 22
Last Quarter
Mar 1
New
Mar 8
First Quarter
Mar 16
Full

Hourly Weather History & Observations

Time (CST) Temp. Windchill Dew Point Humidity Pressure Visibility Wind Dir Wind Speed Gust Speed Precip Events Conditions
12:15 AM 31.6 °F 23.1 °F 26.4 °F 81% 29.86 in 10.0 mi West 10.4 mph 16.1 mph N/A   Overcast
12:35 AM 31.1 °F 23.1 °F 26.1 °F 82% 29.88 in 10.0 mi West 9.2 mph 17.3 mph N/A   Overcast
12:55 AM 30.2 °F 23.4 °F 25.5 °F 83% 29.88 in 10.0 mi West 6.9 mph - N/A   Overcast
1:15 AM 30.0 °F 22.4 °F 25.0 °F 82% 29.89 in 10.0 mi WNW 8.1 mph - N/A   Overcast
1:35 AM 29.7 °F 22.0 °F 24.8 °F 82% 29.91 in 10.0 mi West 8.1 mph - N/A   Overcast
1:55 AM 28.2 °F 22.0 °F 23.7 °F 83% 29.92 in 10.0 mi West 5.8 mph - N/A   Scattered Clouds
2:15 AM 27.1 °F 19.7 °F 23.0 °F 84% 29.93 in 10.0 mi West 6.9 mph - N/A   Clear
2:35 AM 25.9 °F 21.7 °F 22.3 °F 86% 29.93 in 10.0 mi West 3.5 mph - N/A   Clear
2:55 AM 25.2 °F 20.9 °F 21.9 °F 87% 29.93 in 10.0 mi West 3.5 mph - N/A   Clear
3:15 AM 22.6 °F - 20.7 °F 92% 29.94 in 10.0 mi Calm Calm - N/A   Clear
3:35 AM 21.2 °F - 19.8 °F 94% 29.95 in 10.0 mi Calm Calm - N/A   Clear
3:55 AM 21.2 °F - 20.1 °F 96% 29.95 in 10.0 mi Calm Calm - N/A   Clear
4:15 AM 8.6 °F 2.0 °F 5.7 °F 88% 29.95 in 0.2 mi ENE 3.5 mph - N/A Fog Light Freezing Fog
4:35 AM 16.7 °F - 15.4 °F 95% 29.96 in 5.0 mi Calm Calm - N/A   Clear
4:55 AM 11.1 °F - 8.6 °F 90% 29.95 in 0.5 mi Calm Calm - N/A Fog Light Freezing Fog
5:15 AM 12.7 °F - 11.3 °F 94% 29.95 in 1.5 mi Calm Calm - N/A   Mist
5:35 AM 10.2 °F - 8.2 °F 92% 29.95 in 0.2 mi Calm Calm - N/A Fog Light Freezing Fog
5:55 AM 9.1 °F - 7.0 °F 91% 29.95 in 0.2 mi Calm Calm - N/A Fog Light Freezing Fog
6:15 AM 6.6 °F -0.3 °F 3.6 °F 87% 29.96 in 7.0 mi South 3.5 mph - N/A   Scattered Clouds
6:35 AM 9.1 °F 0.8 °F 7.5 °F 93% 29.98 in 4.0 mi South 4.6 mph - N/A   Clear
6:55 AM 13.1 °F 7.1 °F 11.3 °F 93% 29.97 in 0.2 mi South 3.5 mph - N/A Fog Light Freezing Fog
7:15 AM 17.6 °F 12.3 °F 16.0 °F 93% 29.96 in 0.2 mi SE 3.5 mph - N/A Fog Light Freezing Fog
7:35 AM 18.3 °F 13.1 °F 16.9 °F 94% 29.95 in 0.2 mi South 3.5 mph - N/A Fog Light Freezing Fog
7:55 AM 23.0 °F 18.4 °F 21.7 °F 95% 29.95 in 7.0 mi SSE 3.5 mph - N/A   Clear
8:15 AM 24.8 °F 17.9 °F 23.5 °F 95% 29.94 in 10.0 mi ESE 5.8 mph - N/A   Clear
8:35 AM 24.1 °F 18.2 °F 22.8 °F 95% 29.94 in 10.0 mi SSE 4.6 mph - N/A   Clear
8:55 AM 28.2 °F 20.2 °F 27.1 °F 96% 29.93 in 10.0 mi SSE 8.1 mph - N/A   Clear
9:15 AM 29.5 °F 22.5 °F 27.1 °F 91% 29.92 in 10.0 mi SSE 6.9 mph - N/A   Clear
9:35 AM 32.4 °F 26.0 °F 24.3 °F 72% 29.91 in 10.0 mi SSE 6.9 mph - N/A   Clear
9:55 AM 33.3 °F 26.4 °F 24.4 °F 70% 29.90 in 10.0 mi SSE 8.1 mph - N/A   Clear
10:15 AM 35.1 °F 29.3 °F 25.3 °F 68% 29.89 in 10.0 mi SSE 6.9 mph - N/A   Clear
10:35 AM 37.4 °F 30.8 °F 25.5 °F 62% 29.87 in 10.0 mi SSE 9.2 mph - N/A   Clear
10:55 AM 39.7 °F 32.3 °F 25.5 °F 57% 29.85 in 10.0 mi South 12.7 mph 17.3 mph N/A   Clear
11:15 AM 41.0 °F 34.3 °F 25.0 °F 53% 29.84 in 10.0 mi South 11.5 mph 18.4 mph N/A   Clear
11:35 AM 41.0 °F 34.3 °F 25.7 °F 55% 29.83 in 10.0 mi South 11.5 mph 18.4 mph N/A   Clear
11:55 AM 42.3 °F 36.3 °F 26.1 °F 53% 29.80 in 10.0 mi South 10.4 mph 16.1 mph N/A   Clear
12:15 PM 43.3 °F 35.8 °F 26.1 °F 51% 29.77 in 10.0 mi South 16.1 mph 21.9 mph N/A   Clear
12:35 PM 44.1 °F 38.1 °F 26.6 °F 50% 29.77 in 10.0 mi South 11.5 mph 17.3 mph N/A   Clear
12:55 PM 44.8 °F 39.4 °F 27.0 °F 50% 29.76 in 10.0 mi South 10.4 mph - N/A   Clear
1:15 PM 44.6 °F 37.2 °F 26.6 °F 49% 29.73 in 10.0 mi South 17.3 mph 29.9 mph N/A   Clear
1:35 PM 43.9 °F 36.2 °F 27.3 °F 52% 29.72 in 10.0 mi South 17.3 mph 24.2 mph N/A   Clear
1:55 PM 44.6 °F 36.9 °F 27.5 °F 51% 29.72 in 10.0 mi South 18.4 mph 24.2 mph N/A   Clear
2:15 PM 45.7 °F 38.6 °F 27.5 °F 49% 29.72 in 10.0 mi SSW 17.3 mph 25.3 mph N/A   Clear
2:35 PM 45.1 °F 38.1 °F 26.6 °F 48% 29.72 in 10.0 mi SSW 16.1 mph 27.6 mph N/A   Clear
2:55 PM 44.4 °F 36.9 °F 27.1 °F 51% 29.71 in 10.0 mi SSW 17.3 mph 24.2 mph N/A   Clear
3:15 PM 43.2 °F 35.0 °F 27.5 °F 54% 29.70 in 10.0 mi SSW 18.4 mph 26.5 mph N/A   Clear
3:35 PM 43.0 °F 35.4 °F 27.9 °F 55% 29.70 in 10.0 mi SSW 16.1 mph 25.3 mph N/A   Clear
3:55 PM 42.4 °F 34.7 °F 28.2 °F 57% 29.70 in 10.0 mi SSW 16.1 mph 24.2 mph N/A   Clear
4:15 PM 41.9 °F 34.6 °F 28.4 °F 59% 29.69 in 10.0 mi SSW 13.8 mph 21.9 mph N/A   Clear
4:35 PM 42.8 °F 36.6 °F 28.2 °F 56% 29.70 in 10.0 mi SSW 11.5 mph 19.6 mph N/A   Clear
4:55 PM 42.8 °F 36.6 °F 28.2 °F 56% 29.70 in 10.0 mi SSW 11.5 mph 17.3 mph N/A   Clear
5:15 PM 41.9 °F 34.6 °F 28.2 °F 58% 29.70 in 10.0 mi SSW 13.8 mph 19.6 mph N/A   Clear
5:35 PM 41.4 °F 35.7 °F 28.4 °F 60% 29.71 in 10.0 mi WSW 9.2 mph 17.3 mph N/A   Clear
5:55 PM 41.0 °F 33.9 °F 28.4 °F 61% 29.70 in 10.0 mi SSW 12.7 mph 16.1 mph N/A   Clear
6:15 PM 40.1 °F 33.2 °F 28.8 °F 64% 29.70 in 10.0 mi SSW 11.5 mph - N/A   Clear
6:35 PM 40.3 °F 35.5 °F 28.9 °F 64% 29.70 in 10.0 mi SSW 6.9 mph - N/A   Clear
6:55 PM 39.6 °F 35.4 °F 29.3 °F 67% 29.71 in 10.0 mi SSW 5.8 mph - N/A   Clear
7:15 PM 39.0 °F 34.0 °F 29.3 °F 68% 29.70 in 10.0 mi South 6.9 mph - N/A   Clear
7:35 PM 38.7 °F 33.6 °F 29.3 °F 69% 29.70 in 10.0 mi South 6.9 mph - N/A   Clear
7:55 PM 38.3 °F 31.9 °F 29.3 °F 70% 29.69 in 10.0 mi South 9.2 mph - N/A   Clear
8:15 PM 38.7 °F 32.9 °F 29.3 °F 69% 29.69 in 10.0 mi SSW 8.1 mph - N/A   Clear
8:35 PM 38.8 °F 33.8 °F 29.3 °F 69% 29.69 in 10.0 mi SSW 6.9 mph - N/A   Clear
8:55 PM 38.7 °F 33.6 °F 29.3 °F 69% 29.68 in 10.0 mi SSW 6.9 mph - N/A   Clear
9:15 PM 38.7 °F 34.3 °F 29.3 °F 69% 29.68 in 10.0 mi SSW 5.8 mph - N/A   Clear
9:35 PM 38.5 °F 34.1 °F 29.3 °F 70% 29.68 in 10.0 mi SSW 5.8 mph - N/A   Clear
9:55 PM 37.9 °F 34.4 °F 29.3 °F 71% 29.68 in 10.0 mi SSW 4.6 mph - N/A   Clear
10:15 PM 37.4 °F 34.9 °F 29.3 °F 73% 29.68 in 10.0 mi SW 3.5 mph - N/A   Clear
10:35 PM 36.9 °F 34.3 °F 29.1 °F 74% 29.67 in 10.0 mi SW 3.5 mph - N/A   Clear
10:55 PM 36.5 °F 33.9 °F 28.9 °F 74% 29.67 in 10.0 mi SW 3.5 mph - N/A   Clear
11:55 PM 35.2 °F - 28.4 °F 76% 29.67 in 10.0 mi Calm Calm - N/A   Clear